Location: Widewater Village at Stafford
(38.4893°N, 77.3783°W)
Time: 07:55:37
(UTC+00:00)

Tiangong - Visible Passes

Search period start: 04 March 2024 00:00
Search period end: 14 March 2024 00:00
Orbit: 374 x 383 km, 41.5° (Epoch: 03 March)

Date Brightness Start Highest point End Pass type
(mag) Time Alt. Az. Time Alt. Az. Time Alt. Az.
04 Mar 0.1 01:07:31 10° WNW 01:09:02 25° WNW 01:09:02 25° WNW visible
05 Mar -1.5 00:05:57 10° WNW 00:08:58 45° N 00:10:33 23° ENE visible
06 Mar -1.7 00:41:13 10° WNW 00:44:05 54° N 00:44:05 54° N visible
06 Mar -1.6 23:39:34 10° WNW 23:42:35 46° N 23:45:27 11° E visible
07 Mar 0.4 01:16:17 10° WNW 01:17:33 22° WNW 01:17:33 22° WNW visible
08 Mar -2.2 00:14:35 10° WNW 00:17:41 73° NNE 00:18:53 33° E visible
09 Mar -1.3 00:49:34 10° W 00:52:18 44° SW 00:52:18 44° SW visible
09 Mar -2.1 23:47:39 10° WNW 23:50:45 79° SSW 23:53:37 12° ESE visible
10 Mar 1.0 01:25:10 10° WSW 01:25:43 12° WSW 01:25:43 12° WSW visible
11 Mar -0.5 00:22:39 10° W 00:25:21 27° SSW 00:27:03 17° SSE visible
12 Mar 0.4 23:55:41 10° WSW 23:57:49 17° SSW 23:59:55 10° S visible
